Location: Fitch
(41.6964°N, 83.5908°W)
Time: 04:19:15
(UTC+00:00)

Daily predictions for brighter satellites

Satellite Brightness Start Highest point End
(mag) Time Altitude Azimuth Time Altitude Azimuth Time Altitude Azimuth
Cosmos 1464 Rocket 4.5 00:03:57 10° SSE 00:09:27 37° E 00:15:01 10° NNE
Cosmos 1025 Rocket 4.3 00:06:56 10° NNE 00:10:22 22° ENE 00:13:48 10° SE
BREEZE-M DEB (TANK) 3.7 00:09:19 10° SSW 00:11:58 35° ESE 00:18:13 10° ENE
USA 186 3.8 00:11:48 11° E 00:13:07 13° ENE 00:14:38 10° NE
Cosmos 1782 Rocket 3.5 00:08:54 10° S 00:13:18 84° E 00:17:45 10° N
Cosmos 1844 Rocket 3.5 00:09:53 10° SSE 00:14:24 26° ESE 00:18:56 10° NE
Cosmos 1867 3.9 00:09:51 10° NNW 00:15:11 51° NE 00:20:29 10° SE
Meteor 2-9 Rocket 4.4 00:10:31 10° S 00:16:23 89° W 00:22:13 10° N
ISS -3.5 00:15:21 10° WSW 00:18:42 73° NW 00:22:05 10° NE
CZ-2D R/B 4.0 00:15:45 10° S 00:19:33 57° W 00:23:25 10° NNW
Cosmos 2084 Rocket 4.0 00:16:40 10° NW 00:21:06 66° WSW 00:25:35 10° SSE
Cosmos 807 4.5 00:19:50 10° S 00:22:56 80° W 00:26:38 10° N
Cosmos 1937 Rocket 3.9 00:18:52 10° SSW 00:24:06 68° WNW 00:29:19 10° NNE
Lacrosse 5 rocket 4.1 00:22:09 10° NW 00:24:27 14° NNW 00:26:49 10° NNE
USA 234 4.3 00:19:41 10° ENE 00:24:43 23° ESE 00:29:44 10° S
SJ-11-01 4.3 00:20:24 10° SSE 00:25:02 60° ENE 00:29:40 10° N
Cosmos 1943 3.5 00:23:54 10° NNW 00:29:32 72° WSW 00:35:10 10° SSE
CZ-2C R/B 2.3 00:27:27 10° WSW 00:30:36 27° S 00:32:43 15° SE
Cosmos 1125 Rocket 4.4 00:26:19 10° SSE 00:30:42 27° E 00:35:06 10° NE
Cosmos 1891 Rocket 4.4 00:30:27 10° S 00:36:30 65° E 00:42:30 10° NNE
CSL-04 Debris 4.2 00:31:49 10° SSE 00:37:12 88° WSW 00:42:38 10° NNW
Exosat Rocket 4.4 00:33:31 10° SSE 00:38:30 30° ESE 00:42:52 10° NE
Cosmos 1975 Rocket 3.3 00:34:45 10° NNW 00:39:04 69° W 00:43:20 10° S
NOSS 3-4 (A) 4.5 00:35:57 10° SSE 00:40:02 20° ESE 00:42:16 16° E
NOSS 3-4 (C) 4.5 00:36:06 10° SSE 00:40:09 19° ESE 00:41:56 17° E
CSL-04 Rocket 3.8 00:38:35 10° SSE 00:44:00 81° WSW 00:49:32 10° NNW
Cosmos 1174 4.4 00:43:43 10° SSW 00:48:27 74° ESE 00:54:31 10° NE
Cosmos 1674 3.7 00:50:35 10° NNE 00:53:56 27° ENE 00:54:01 27° ENE
Abrixas rocket 3.9 00:54:04 10° NW 00:56:17 20° N 00:57:14 17° NNE
HJ-1C 4.3 00:55:01 10° S 00:58:12 48° W 01:01:25 10° NNW
Resurs 01 Rocket 3.4 00:59:14 16° NE 00:59:14 16° NE 01:01:25 10° NNE
H-2A R/B 2.2 00:54:00 10° S 00:58:55 70° WSW 01:03:59 10° NNW
Cosmos 1048 Rocket 4.2 00:55:06 10° N 01:00:19 53° ENE 01:03:09 26° SE
IRS-1A Rocket 4.5 00:55:43 14° SE 01:00:38 57° ENE 01:06:22 10° N
Nadezhda 4 Rocket 3.9 00:56:08 10° N 01:02:12 61° E 01:07:55 12° SSE
ATLAS 2AS CENTAUR R/B 3.5 00:55:33 10° S 01:02:23 34° ESE 01:09:15 10° NE
BREEZE-M TANK 3.4 00:51:01 10° WSW 01:02:52 88° NNW 01:05:15 25° ENE
Meteor 1-12 Rocket 4.4 00:58:53 10° SSW 01:04:49 79° W 01:10:40 10° N
Cosmos 2034 Rocket 3.9 01:01:26 10° S 01:07:47 77° E 01:14:08 10° N
CENTAUR R/B 3.5 01:01:55 10° NNW 01:09:44 50° NE 01:14:15 28° ESE
CZ-4 R/B 4.3 01:10:39 10° SW 01:13:36 18° W 01:16:34 10° NW
Okean 1 Rocket 3.3 01:16:18 46° ESE 01:16:43 47° E 01:21:02 10° NNE
ATLAS 3B R/B 4.1 01:12:18 10° NNW 01:17:31 22° NNE 01:20:03 19° ENE
Okean 2 Rocket 4.0 01:13:54 10° SSW 01:18:16 51° W 01:22:40 10° N
Cosmos 1707 4.0 01:14:41 10° NNW 01:18:18 40° W 01:21:53 10° SSW
Ariane Rocket 2.9 01:16:43 23° SSE 01:19:54 83° ENE 01:25:00 10° NNW
KORONAS-FOTON 3.9 01:16:42 10° N 01:20:25 55° ENE 01:20:25 55° ENE
OBJECT-B 2.7 01:23:19 21° NNE 01:23:19 21° NNE 01:24:38 10° N
Cosmos 2082 Rocket 4.3 01:21:46 10° NNE 01:23:12 11° NE 01:23:32 11° NE
USA 238 DEB 3.8 01:18:25 10° NNW 01:25:42 78° NE 01:29:18 34° SE
Cosmos 494 Rocket 4.1 01:20:36 10° NNW 01:25:48 57° ENE 01:26:50 48° ESE
USA 238 3.8 01:18:31 10° NNW 01:25:48 77° NE 01:29:22 35° SE
Meteor 2-5 Rocket 3.9 01:21:25 10° N 01:26:55 49° ENE 01:27:52 44° ESE
ARGOS 3.9 01:23:07 10° S 01:28:18 51° W 01:33:33 10° NNW
Resurs 1-3 4.0 01:32:05 47° NE 01:32:05 47° NE 01:35:51 10° N
SJ-6B 2.7 01:33:14 73° SW 01:33:25 76° WSW 01:37:11 10° NNW
SL-08 RB Rocket 4.3 01:30:56 17° S 01:34:18 55° W 01:38:47 10° NNW
CZ-2C R/B 2.8 01:28:48 10° N 01:34:22 81° WNW 01:39:59 10° SSW
COSMOS 2406 4.3 01:33:33 10° N 01:38:13 29° NE 01:38:13 29° NE
Cosmos 1634 Rocket 3.9 01:37:17 42° SSE 01:39:12 59° E 01:45:16 10° NNE
Cosmos 1536 Rocket 4.4 01:38:54 10° NNW 01:43:11 48° W 01:45:33 24° SSW
USA 186 3.5 01:43:19 30° WSW 01:43:30 30° W 01:46:24 10° NNW
Meteor 1-24 Rocket 3.9 01:39:17 10° N 01:44:32 52° ENE 01:44:32 52° ENE
SPOT 3 Rocket 3.5 01:44:55 64° ENE 01:44:57 64° ENE 01:50:03 10° N
Cosmos 2285 Rocket 4.0 01:43:12 10° SSW 01:49:30 79° WNW 01:55:53 10° NNE
NOSS 3-2 (A) 4.2 01:44:56 10° NW 01:52:38 73° WSW 01:56:29 36° SSE
Meteor 2-13 Rocket 4.4 01:47:05 10° N 01:53:17 83° W 01:55:29 43° S
Cosmos 1844 4.2 01:47:42 10° SW 01:53:20 60° WNW 01:58:56 10° NNE
Cosmos 1626 4.3 01:51:19 10° N 01:52:28 19° N 01:52:28 19° N
ISS -1.3 01:53:25 10° WNW 01:55:46 19° NNW 01:55:46 19° NNW
Cosmos 1844 Rocket 3.7 01:52:42 10° SW 01:58:00 44° WNW 02:03:21 10° NNE
Cosmos 1627 Rocket 4.4 01:52:18 10° N 01:58:44 83° E 01:59:56 62° SSE
Cosmos 1092 Rocket 4.1 01:56:54 10° N 02:03:03 74° W 02:05:04 44° SSW
Cosmos 2195 Rocket 4.4 01:57:43 10° N 02:03:59 82° W 02:05:23 56° S
Lacrosse 5 rocket 4.2 02:03:49 10° NNW 02:05:22 12° N 02:06:10 11° NNE
Cosmos 2026 Rocket 3.9 02:01:19 10° N 02:07:43 89° W 02:08:36 69° S
USA 234 3.1 02:04:41 30° NE 02:08:15 89° SSE 02:14:48 10° SW
Milstar 3 Cent rocket 4.3 02:12:58 10° SW 02:14:14 14° SSW 02:14:14 14° SSW
Cosmos 1428 Rocket 4.4 02:12:20 10° N 02:18:37 78° W 02:19:00 75° SW
Cosmos 2279 Rocket 4.3 02:21:54 56° NNE 02:21:54 56° NNE 02:26:48 10° N
Cosmos 1833 Rocket 3.7 02:18:10 10° NNW 02:21:52 35° NNE 02:21:52 35° NNE
NOSS 3-2 (C) 4.2 02:20:39 10° NW 02:28:19 68° WSW 02:29:49 58° S
NOSS 3-4 (A) 3.6 02:24:19 10° SW 02:30:10 67° NW 02:36:25 10° NNE
NOSS 3-4 (C) 3.6 02:24:25 10° SW 02:34:28 21° NNE 02:36:31 10° NNE
Resurs 01 Rocket 3.5 02:36:49 28° NW 02:36:49 28° NW 02:39:07 10° NNW
Terra 4.5 02:42:40 11° NNE 02:42:40 11° NNE 02:42:53 10° NNE
ATLAS 2AS CENTAUR R/B 3.4 02:45:10 10° SW 02:53:01 62° NW 03:00:51 10° NNE
CENTAUR R/B 3.7 02:52:44 10° NW 03:00:39 49° WSW 03:01:27 48° SW
Cosmos 2082 Rocket 4.0 03:02:55 10° NNW 03:05:22 26° N 03:05:22 26° N
ATLAS 3B R/B 3.3 03:02:18 10° NNW 03:07:18 51° NNW 03:07:18 51° NNW
ADEOS II 4.3 07:26:14 10° NNE 07:28:11 22° NE 07:28:11 22° NE
Lacrosse 5 3.6 08:06:13 29° NNE 08:06:13 29° NNE 08:08:44 10° NE
CZ-2D R/B 4.3 08:02:38 10° N 08:04:03 18° NNW 08:04:03 18° NNW
Resurs 1-4 Rocket 4.3 08:08:55 10° N 08:10:13 17° NNW 08:10:13 17° NNW
ATLAS 5 CENTAUR R/B 4.4 08:16:47 11° N 08:16:47 11° N 08:17:11 10° N
USA 267 3.2 08:16:11 10° NE 08:22:28 79° N 08:22:28 79° N
Spot 4 Rocket 4.5 08:30:17 10° NNE 08:35:06 57° E 08:35:06 57° E
Cosmos 921 Rocket 4.3 08:43:18 38° ENE 08:43:18 38° ENE 08:46:28 10° NNE
MSX 4.3 08:39:37 10° NNE 08:45:19 57° E 08:47:06 41° SSE
Cosmos 1812 4.5 08:46:42 31° E 08:46:42 31° E 08:49:53 10° NNE
Timation 1 Rocket 4.2 08:40:44 10° NNW 08:46:47 87° ENE 08:52:48 10° SSE
Cosmos 1697 Rocket 3.6 08:48:35 35° NNW 08:48:35 35° NNW 08:52:36 10° N
Cosmos 1980 Rocket 2.2 08:52:46 65° NW 08:52:46 65° NW 08:58:01 10° NNE
USA 234 3.6 08:50:05 10° ESE 08:56:30 63° NE 09:02:57 10° NW
BREEZE-M DEB (TANK) 4.0 08:55:57 43° SSW 08:58:12 57° SSE 09:02:12 10° ENE
Cosmos 2322 Rocket 3.7 08:55:32 15° SSE 08:59:29 33° ESE 09:04:30 10° NE
BREEZE-M DEB (TANK) 3.8 09:01:04 40° NE 09:01:04 40° NE 09:04:38 10° ENE
Cosmos 2263 Rocket 2.8 08:55:25 10° NNW 09:00:59 55° ENE 09:06:32 10° SE
Cosmos 192 4.4 09:02:51 66° NNW 09:02:51 66° NNW 09:07:15 10° NNE
Celestis-02/Orion 38 4.5 09:02:32 10° SSE 09:07:50 89° WSW 09:13:02 10° NNW
SL-16 R/B 3.0 09:05:31 24° S 09:08:38 48° ESE 09:14:05 10° NE
SL-4 R/B 3.1 09:08:18 39° SSE 09:08:44 40° SE 09:13:09 10° ENE
Cosmos 2228 Rocket 3.0 09:09:42 75° N 09:09:42 75° N 09:13:46 10° N
ADEOS II 3.7 09:06:33 10° NNW 09:09:06 21° NW 09:09:06 21° NW
Cosmos 1934 Rocket 3.8 09:05:04 10° NNW 09:11:03 65° W 09:12:49 45° SSW
ARIANE 5 R/B 3.1 09:08:39 10° N 09:12:41 40° NW 09:12:41 40° NW
CZ-2D R/B 4.4 09:12:01 10° N 09:14:55 37° NNW 09:14:55 37° NNW
Meteor 1-4 Rocket 3.2 09:16:32 50° E 09:16:35 50° E 09:20:00 10° NNE
COSMOS 2441 4.3 09:12:20 10° NNE 09:17:17 86° WNW 09:18:29 53° SSW
Cosmos 1869 Rocket 3.7 09:15:06 10° N 09:19:26 70° E 09:23:44 10° SSE
CZ-2C R/B 3.2 09:14:41 10° NNE 09:19:44 53° E 09:24:47 10° S
ASTEX 1 3.7 09:14:56 10° N 09:19:17 47° WNW 09:19:17 47° WNW
IDEFIX/ARIANE 42P 2.7 09:14:43 10° N 09:19:49 50° WNW 09:20:03 50° W
Cosmos 2227 4.2 09:14:30 10° NNW 09:20:11 83° ENE 09:25:48 10° SSE
Meteor 1-10 Rocket 4.3 09:17:09 21° S 09:21:06 79° E 09:26:59 10° NNE
ERBS 3.2 09:22:46 44° NNE 09:22:46 44° NNE 09:25:16 10° NE
CZ-2C R/B 3.1 09:18:44 10° N 09:21:45 51° NNW 09:21:45 51° NNW
IRIDIUM 106 4.5 09:19:36 10° N 09:24:50 75° E 09:30:02 10° S
Cosmos 1763 Rocket 3.9 09:21:34 22° S 09:24:55 64° ESE 09:30:11 10° NNE
SJ 16-02 1.2 09:24:41 10° NNW 09:29:05 89° ENE 09:33:29 10° SSE
Meteor 1-14 Rocket 4.4 09:26:04 10° NNW 09:31:22 45° W 09:32:16 41° WSW
PSLV R/B 3.6 09:28:00 10° NNE 09:32:12 72° ESE 09:34:43 23° S
Cosmos 44 4.0 09:33:21 32° NW 09:33:27 32° NW 09:37:38 10° NNE
Meteor 1-5 Rocket 4.0 09:29:02 10° NNW 09:34:22 79° W 09:39:47 10° S
DEBRIS 2.3 09:34:58 72° NNW 09:35:09 76° NNE 09:39:57 10° ESE
CZ-4B R/B 3.6 09:32:39 10° SE 09:35:19 25° ENE 09:38:02 10° NNE
Meteor 2-6 Rocket 4.2 09:32:38 31° SSW 09:35:20 65° WNW 09:41:08 10° N
H-2A R/B 1.9 09:31:25 10° S 09:35:46 74° WSW 09:40:13 10° NNW
Cosmos 1238 Rocket 4.2 09:30:09 10° NNW 09:36:19 45° W 09:39:05 28° SW
Cosmos 1605 Rocket 4.0 09:32:01 10° NNW 09:38:20 64° W 09:44:38 10° S
Landsat 5 3.7 09:41:55 10° S 09:46:21 55° W 09:50:46 10° NNW
PAYLOAD A 3.7 09:42:16 10° N 09:46:58 75° WNW 09:50:29 18° SSW
Lacrosse 5 3.6 09:45:25 16° NW 09:47:28 20° NNW 09:51:14 10° NNE
ERS-2 2.0 09:45:07 10° SSE 09:48:46 89° E 09:52:27 10° NNW
Cosmos 990 Rocket 3.9 09:44:38 10° NNW 09:49:51 85° WSW 09:55:04 10° SSE
Cosmos 540 Rocket 4.1 09:46:38 10° S 09:51:39 55° ESE 09:56:43 10° NNE
X-37B 0.9 09:51:11 41° NW 09:52:03 63° NNE 09:55:13 10° E
Cosmos 468 Rocket 4.0 09:50:04 23° SW 09:53:22 64° WNW 09:58:37 10° NNE
ALOS 3.2 09:55:02 10° NNE 09:59:34 48° E 10:04:03 10° S
Cosmos 1484 Rocket 3.8 09:55:50 10° NNE 09:59:43 48° E 10:03:35 10° S
NOSS 3-4 (A) 4.4 09:55:41 10° NNW 10:02:40 62° NE 10:10:24 10° SE
NOSS 3-4 (C) 4.4 09:55:47 10° NNW 10:02:46 62° NE 10:10:30 10° SE
USA 267 4.3 09:59:31 10° NE 10:05:12 33° NNW 10:09:48 15° WNW
Cosmos 1536 2.7 10:02:35 10° N 10:06:41 83° W 10:10:44 10° S
Meteor 1-31 Rocket 3.6 10:07:31 10° NNE 10:11:16 52° E 10:15:02 10° S
Cosmos 1727 Rocket 4.2 10:05:38 10° SSW 10:11:47 52° WNW 10:17:58 10° N
Cosmos 1437 Rocket 4.0 10:09:54 10° SSE 10:13:29 42° E 10:17:07 10° NNE
Meteor 1-11 Rocket 3.8 10:08:26 10° NNW 10:14:04 56° W 10:19:33 10° S
Cosmos 2100 Rocket 4.0 10:08:39 10° N 10:15:03 82° W 10:21:24 10° S
deb Chang Zheng 4 3.4 10:15:49 10° N 10:20:06 76° WNW 10:24:21 10° SSW
Cosmos 1802 Rocket 4.1 10:14:09 10° N 10:20:23 83° E 10:26:40 10° S
SL-8 R/B 3.9 10:17:55 14° WNW 10:21:46 49° SW 10:26:22 10° SE
Cosmos 1812 4.3 10:21:49 17° W 10:22:19 17° WNW 10:24:55 10° NNW
Meteor 1-27 Rocket 4.0 10:17:44 10° SSW 10:23:31 52° WNW 10:29:17 10° N
METEOR-M 4.4 10:19:34 10° NNE 10:24:57 74° ESE 10:30:16 10° S
Cosmos 1898 Rocket 3.8 10:20:41 10° NNW 10:25:39 44° WSW 10:30:39 10° S
Cosmos 2360 Rocket 2.2 10:20:32 10° SSW 10:26:13 90° NW 10:31:55 10° NNE
ATLAS 2AS CENTAUR R/B 3.1 10:19:12 10° NNW 10:26:41 71° NE 10:33:31 10° SE
ADEOS Rocket 3.3 10:21:36 10° S 10:28:21 56° W 10:34:28 10° NNW
Cosmos 1666 3.5 10:25:36 10° NNW 10:28:54 28° W 10:32:10 10° SSW
Cosmos 1459 Rocket 3.9 10:24:05 10° NNW 10:30:07 68° W 10:36:05 10° S
Cosmos 1707 Rocket 4.3 10:27:04 10° SW 10:30:54 31° WNW 10:34:47 10° NNW
Cosmos 372 Rocket 4.3 10:27:05 10° NNW 10:32:14 72° ENE 10:37:20 10° SSE
Cosmos 2123 Rocket 4.1 10:28:56 10° S 10:35:10 84° E 10:41:30 10° N
FENGYUN 3A 3.6 10:31:02 10° N 10:36:26 74° WNW 10:41:48 10° SSW
SAR-Lupe-4 3.7 10:33:10 10° S 10:36:40 52° W 10:40:12 10° NNW
Cosmos 2242 Rocket 4.1 10:32:35 10° S 10:36:55 65° E 10:41:18 10° NNE
Cosmos 1980 Rocket 4.1 10:35:16 10° WNW 10:37:29 12° NW 10:39:40 10° NNW
Cosmos 2208 Rocket 4.0 10:34:17 10° SSW 10:39:30 68° WNW 10:44:42 10° NNE
USA 234 3.7 10:33:42 10° SSE 10:39:42 39° SW 10:45:44 10° WNW
Okean 1-7 4.2 10:36:40 10° SSE 10:40:45 47° E 10:44:50 10° NNE
Cosmos 2322 Rocket 2.8 10:38:12 10° SW 10:43:25 37° WNW 10:48:42 10° N
Cosmos 2263 Rocket 3.3 10:40:18 10° NW 10:44:27 21° W 10:48:35 10° SSW
FALCON 9 DEB 4.2 10:43:18 11° W 10:46:20 32° NNW 10:49:29 10° NE
Cosmos 1844 4.1 10:41:48 10° NNW 10:47:22 69° ENE 10:52:53 10° SSE
SL-4 R/B 2.9 10:43:58 10° W 10:48:27 47° NNW 10:53:06 10° NE
Cosmos 1733 Rocket 3.6 10:45:58 10° NNW 10:49:57 36° W 10:53:54 10° SSW
USA 276 4.0 10:47:43 10° NW 10:50:29 26° NNE 10:53:15 10° ENE
SKYMED 2 3.6 10:46:23 10° SSE 10:50:44 88° ENE 10:55:05 10° NNW
Cosmos 1844 Rocket 2.8 10:45:10 10° NNW 10:50:51 89° ENE 10:56:31 10° SSE
Cosmos 1937 Rocket 4.0 10:46:21 10° NW 10:51:01 35° WSW 10:55:39 10° SSW
CZ-4C R/B 4.2 10:45:03 10° NNW 10:51:53 43° NE 10:59:39 10° ESE
SL-16 R/B 3.3 10:48:16 10° WSW 10:52:59 27° NW 10:57:44 10° N
Cosmos 2237 4.5 10:48:58 10° SW 10:54:29 50° WNW 11:00:03 10° NNE
ADEOS 4.1 10:49:52 10° N 10:54:41 39° WNW 10:59:28 10° SW
Cosmos 2150 Rocket 4.5 10:50:00 10° NNW 10:55:28 72° ENE 11:00:50 10° SSE
Cosmos 1814 Rocket 4.3 10:52:02 10° SW 10:57:03 48° WNW 11:02:10 10° N
ATLAS CENTAUR R/B 3.6 10:52:38 10° NW 10:59:37 38° NNE 11:02:47 10° E
